Home   Weather   Swanage   Past weeks

Flag for United Kingdom Past Weather in Swanage, England, United Kingdom — Yesterday and Last 2 Weeks

Now
32 °F

Passing clouds.


Feels Like: 26 °F
Forecast: 30 / 47 °F
Wind: 7 mph from East

Location: Bournemouth Airport

Current Time: Jan 22, 2017 at 12:02:28 am

Latest Report: Jan 21, 2017 at 11:20 pm


Visibility: 5 mi

Pressure: 30.27 "Hg

Humidity: 80%

Dew Point: 27 °F

Location of SwanageLocation

Past Weather in Swanage — Graph

°F

Swanage Temperature Yesterday

Maximum temperature yesterday: 37 °F (at 11:50 am)
Minimum temperature yesterday: 19 °F (at 6:50 am)
Average temperature yesterday: 32 °F

High & Low Weather Summary for the Past Weeks

 TemperatureHumidityPressure
High52 °F (Jan 7, 11:20 am)100% (Jan 6, 10:20 pm)30.66 "Hg (Jan 6, 10:20 pm)
Low19 °F (Jan 21, 6:50 am)46% (Jan 19, 3:20 pm)29.36 "Hg (Jan 12, 3:20 pm)
Average41 °F85%30.24 "Hg
* Reported Jan 6 10:20 pm — Jan 21 10:50 pm, Swanage, Weather by CustomWeather, © 2017

Note: Actual official high and low records may vary slightly from our data, if they occured in-between our weather recording intervals... More about our weather records

Advertising

Swanage Weather History for the Previous 24 Hours

Scroll right to see more
 ConditionsComfort  
Time TempWeatherWind HumidityBarometerVisibility
10:50 pm
Sat, Jan 21
34 °FOvercast.2 mph81%30.27 "HgN/A
10:20 pm34 °FOvercast.5 mph81%30.27 "HgN/A
9:50 pm34 °FOvercast.6 mph87%30.27 "Hg6 mi
9:20 pm34 °FOvercast.5 mph81%30.27 "Hg6 mi
8:50 pm34 °FOvercast.6 mph81%30.27 "HgN/A
8:20 pm34 °FOvercast.6 mph81%30.27 "HgN/A
7:50 pm34 °FOvercast.6 mph81%30.27 "HgN/A
7:20 pm34 °FOvercast.6 mph81%30.27 "HgN/A
6:50 pm36 °FOvercast.7 mph75%30.27 "HgN/A
6:20 pm36 °FOvercast.7 mph75%30.27 "HgN/A
5:50 pm36 °FOvercast.8 mph75%30.27 "HgN/A
5:20 pm36 °FPassing clouds.6 mph75%30.27 "HgN/A
4:50 pm36 °FPassing clouds.8 mph75%30.27 "HgN/A
4:20 pm37 °FPartly sunny.8 mph65%30.27 "HgN/A
3:50 pm37 °FPartly sunny.7 mph70%30.27 "HgN/A
3:20 pm37 °FPartly sunny.8 mph65%30.27 "HgN/A
2:50 pm37 °FPartly sunny.9 mph65%30.27 "HgN/A
2:20 pm37 °FPartly sunny.9 mph65%30.27 "HgN/A
1:50 pm37 °FPartly sunny.7 mph65%30.27 "HgN/A
1:20 pm37 °FSnow. Partly sunny.8 mph70%30.27 "HgN/A
12:50 pm37 °FSnow. Partly sunny.9 mph70%30.27 "HgN/A
12:20 pm36 °FSnow. Scattered clouds.9 mph75%30.30 "HgN/A
11:50 am37 °FScattered clouds.8 mph75%30.30 "HgN/A
11:20 am36 °FPassing clouds.8 mph75%30.30 "HgN/A
10:50 am36 °FPassing clouds.9 mph75%30.33 "HgN/A
10:20 am34 °FPassing clouds.7 mph81%30.33 "HgN/A
9:50 am30 °FPassing clouds.3 mph93%30.33 "HgN/A
9:20 am27 °FPassing clouds.6 mph93%30.33 "HgN/A
8:50 am21 °FPassing clouds.1 mph93%30.33 "HgN/A
8:20 am19 °FSunny.2 mph93%30.33 "Hg10 mi
7:50 am21 °FClear.3 mph93%30.33 "Hg10 mi
7:20 am19 °FClear.2 mph93%30.33 "Hg10 mi
6:50 am19 °FClear.2 mph93%30.33 "Hg10 mi
6:20 am21 °FClear.3 mph93%30.33 "HgN/A
Weather by CustomWeather, © 2017

See weather overviewHow to use our weather pages